Theta_e
312 311 312 312 316 319 319 321 317 319 319 311 312 314 317 321 321 321 321 321 320 331 337 337 337 335 341 343 344 345 349 351 348 342 340 353 352 349 352 351 352 349 348 345 343 343 337 330 325 326 323 318 322 328 329 331 333 334 333 334 335 335 336 336 338 340 342 342 342 342 342 343 343 343 343 343 343 343 344 344 344 343 344 342 342 342 342 342 342 342 341 340 339 337 336 336 335
314 312 313 314 318 318 319 321 315 314 314 309 313 315 318 322 321 320 321 320 322 335 339 341 341 340 345 347 346 346 351 351 350 350 350 352 350 351 352 351 351 348 347 345 344 344 342 334 325 326 323 318 326 333 335 337 339 339 338 337 338 337 338 339 340 341 342 342 342 343 343 343 343 343 343 343 343 344 344 344 344 343 344 343 342 342 342 342 341 341 339 339 338 338 337 337 335
313 313 315 317 319 318 319 320 313 310 310 308 312 319 320 320 320 321 322 323 331 339 341 343 343 345 345 345 345 345 352 350 347 348 348 350 351 352 351 352 350 348 347 346 345 343 343 336 325 325 322 320 327 335 337 339 341 341 342 340 341 341 340 341 342 342 342 342 342 343 343 342 342 343 343 343 344 344 344 344 343 343 344 342 342 342 342 341 341 339 338 337 336 335 335 334 333
312 314 316 318 318 318 319 318 316 310 309 308 310 319 321 319 320 321 326 331 339 340 341 344 345 347 346 347 346 346 353 350 349 348 347 349 351 352 351 351 349 348 347 345 344 343 343 335 326 324 322 321 325 334 338 339 341 342 342 342 343 343 342 342 342 342 342 342 342 343 342 342 342 343 343 343 343 343 344 343 343 343 343 342 342 341 341 340 340 339 337 334 332 330 329 330 330
314 316 316 317 318 318 319 318 317 312 310 311 311 318 321 320 319 323 333 337 338 340 342 345 346 347 347 348 347 348 352 348 350 349 348 349 351 352 351 350 348 347 346 345 344 344 343 335 328 325 323 322 322 332 338 338 340 342 342 343 344 342 342 342 341 342 342 342 342 343 342 342 343 343 344 343 343 343 343 343 342 342 342 341 341 340 340 339 338 336 334 332 328 327 328 331 331
315 317 316 317 318 317 317 314 313 312 315 317 315 319 320 319 319 326 335 335 337 340 342 344 344 346 347 348 348 349 351 349 349 348 349 350 351 351 350 349 347 346 345 344 344 344 342 334 329 327 324 323 321 331 338 338 339 341 341 342 343 343 342 342 342 342 342 342 342 342 343 342 342 342 343 343 342 343 342 342 341 341 341 341 340 340 339 336 334 331 330 329 326 328 330 332 332
316 317 316 316 316 317 314 311 312 312 317 320 318 319 319 319 319 325 330 331 338 341 341 344 343 346 348 348 348 349 350 350 349 347 349 350 350 350 349 348 347 346 344 344 344 344 341 333 329 327 325 324 321 331 338 337 339 340 341 343 343 343 342 343 343 342 342 342 342 342 342 342 342 342 342 342 341 341 341 340 340 339 339 339 338 338 337 334 331 328 326 325 326 329 331 332 332
315 317 317 316 316 317 314 311 313 315 317 319 319 319 319 319 318 321 323 325 332 338 340 343 343 344 348 348 350 350 349 350 349 350 350 350 350 349 348 347 346 346 344 344 345 344 340 333 330 328 326 326 323 333 338 337 339 339 340 342 342 343 342 343 343 343 342 342 342 342 342 342 341 340 340 340 340 340 339 339 338 336 335 334 334 333 333 331 329 326 323 325 328 330 331 332 331
315 316 316 315 315 315 313 312 314 317 318 318 318 317 318 319 318 318 320 320 323 328 335 340 341 343 347 350 351 348 349 351 350 351 350 350 350 349 348 347 346 345 344 345 345 344 341 335 332 330 329 326 326 334 338 336 338 339 339 341 342 342 342 343 343 343 343 342 343 342 341 341 340 339 338 338 338 336 335 336 337 335 333 331 330 330 329 327 325 323 323 327 330 331 332 332 331
315 315 316 315 314 311 309 311 314 316 318 317 317 317 317 318 317 317 317 319 320 321 331 339 340 343 346 350 350 347 349 351 351 351 350 350 349 348 348 347 346 345 345 346 345 343 342 338 333 331 330 327 327 330 334 336 339 340 340 341 342 343 342 342 342 342 342 342 341 341 340 339 338 336 334 332 331 329 327 329 331 329 328 326 326 327 327 325 322 321 324 328 330 331 332 332 331
315 315 315 314 311 308 307 310 313 316 317 317 316 316 316 316 316 317 316 317 318 319 330 338 338 342 346 350 349 349 351 351 351 351 350 350 349 348 347 346 346 344 345 346 345 343 343 340 336 333 330 329 328 326 329 334 338 340 340 341 342 343 342 342 342 342 341 341 340 340 339 338 336 334 331 330 329 326 324 324 325 325 325 324 323 323 323 323 322 321 324 328 330 331 332 332 331
315 315 315 311 309 309 310 311 313 316 317 316 316 316 316 316 316 317 317 316 317 317 327 337 337 341 347 350 349 349 352 351 351 351 350 350 348 348 347 346 345 345 346 345 345 344 343 342 339 336 333 331 330 328 329 332 336 340 340 340 342 342 342 341 341 341 341 340 340 339 339 338 336 335 335 334 332 329 326 325 326 327 328 326 322 320 320 321 320 321 323 327 329 331 332 332 332
314 316 315 311 312 313 312 312 313 315 315 315 316 316 317 317 318 319 319 318 317 316 324 335 336 340 346 349 349 349 351 351 352 350 350 349 348 348 346 346 345 345 346 345 345 344 343 343 342 340 338 336 334 333 331 332 337 340 340 340 341 341 341 341 341 341 341 340 339 339 339 338 337 337 336 335 334 332 328 326 327 329 330 329 325 320 318 319 320 320 322 326 328 331 332 332 333
314 316 315 313 314 315 313 312 313 312 313 316 317 316 317 317 319 323 322 319 318 317 323 335 336 340 347 351 349 347 350 351 351 350 349 349 348 348 347 346 345 345 345 344 345 344 344 343 343 342 340 339 338 336 334 335 337 339 340 340 340 340 341 341 341 341 340 340 339 339 338 338 337 336 335 334 334 333 330 328 329 330 330 330 329 324 317 317 319 320 322 325 328 331 332 332 333
314 315 315 314 313 313 313 312 313 312 312 317 316 316 317 318 325 328 328 321 317 320 328 337 336 340 346 349 349 347 350 350 350 349 349 348 347 347 346 346 345 345 344 344 344 344 343 343 343 342 341 341 340 339 337 336 335 336 339 339 340 340 341 341 341 341 340 340 339 339 338 337 337 336 335 334 333 333 334 331 329 330 331 331 332 329 322 316 317 320 321 324 328 330 332 332 333
315 315 315 313 312 311 313 314 314 312 314 317 315 316 316 320 332 334 332 323 322 332 336 338 339 342 342 343 347 349 350 349 349 349 349 348 347 347 346 346 345 345 344 344 344 344 343 343 343 342 342 341 341 340 338 337 334 335 337 339 339 339 340 340 341 340 339 339 339 339 338 338 337 336 337 336 334 334 335 333 330 331 332 330 331 332 329 320 315 319 321 324 329 331 332 332 333
315 314 314 312 311 311 313 315 314 313 315 318 315 317 316 319 334 338 333 326 331 338 336 337 341 344 343 345 348 349 349 349 348 348 348 347 347 346 346 345 344 344 343 344 344 343 342 343 343 342 342 341 340 340 339 337 334 335 337 338 339 339 340 339 339 338 338 338 338 337 337 338 337 336 338 337 336 335 335 333 330 331 331 330 331 332 332 325 315 317 321 324 330 331 332 332 332
314 314 314 312 312 313 315 316 315 315 316 318 316 317 316 317 331 339 331 325 334 338 338 342 345 347 347 349 349 349 349 348 348 348 347 347 346 346 345 345 344 344 343 343 343 342 342 342 342 341 341 340 339 339 338 337 335 336 337 338 339 339 339 338 338 338 339 338 336 337 337 337 336 336 336 335 336 337 336 335 333 331 331 332 332 330 331 328 317 315 320 325 330 331 332 334 335
314 315 314 313 315 315 316 316 315 316 316 317 316 317 316 318 330 338 329 325 336 340 343 346 347 348 347 348 348 348 348 348 348 347 347 347 346 345 345 344 344 343 343 343 342 342 342 341 341 340 339 338 337 337 337 336 336 336 336 337 338 338 338 338 338 339 339 338 337 337 336 335 335 335 334 333 334 335 335 334 333 331 331 330 330 329 330 329 322 315 318 324 329 331 334 337 338
314 315 315 315 316 316 315 315 315 315 316 316 317 316 316 326 337 337 330 332 340 341 343 346 348 348 345 346 347 348 348 347 347 347 347 346 346 345 344 344 343 343 343 342 342 341 341 340 340 339 337 336 336 336 336 336 336 335 336 337 337 337 337 337 338 338 338 337 337 336 336 336 337 336 335 335 335 336 334 333 333 332 332 331 330 333 332 331 329 321 317 323 330 332 334 335 336
314 316 316 316 316 316 315 314 315 315 316 316 317 315 320 336 342 336 334 338 340 340 342 344 346 347 346 345 347 348 348 347 346 346 346 345 345 344 344 343 343 343 342 342 341 341 340 339 338 337 336 336 336 336 336 335 336 336 337 337 337 337 336 336 336 336 337 336 336 337 338 339 339 339 340 340 340 339 338 336 335 334 335 333 332 335 335 333 335 331 323 325 332 334 334 334 334
315 317 315 317 317 315 315 316 315 316 316 315 317 315 322 337 342 340 337 337 340 340 342 344 345 345 345 346 346 348 348 347 346 345 344 344 344 343 343 342 342 342 341 341 340 340 339 338 337 336 336 336 336 336 336 336 336 337 337 337 337 336 336 336 335 335 336 336 337 338 339 341 341 341 341 342 341 341 341 340 339 337 336 335 334 335 335 335 335 334 330 329 333 334 334 334 334
316 317 316 317 317 316 316 317 315 316 316 316 317 315 318 327 337 342 337 338 344 343 343 344 344 345 346 347 346 345 345 345 346 345 344 344 344 343 342 342 342 341 340 340 339 338 338 337 336 336 336 336 336 337 337 336 336 337 337 337 337 336 336 336 336 336 337 337 338 339 340 342 341 342 342 342 342 342 342 341 341 340 339 337 336 335 335 336 334 334 332 331 331 333 334 334 334
315 315 316 317 316 316 316 316 316 316 316 316 316 315 316 318 331 342 338 342 346 344 344 343 345 348 347 346 345 344 345 345 346 345 344 343 343 342 342 341 341 340 339 338 337 337 336 337 336 336 336 336 337 337 337 336 337 337 337 337 336 336 336 337 337 337 337 338 338 339 340 341 341 341 341 341 341 342 341 341 341 341 341 340 338 336 335 335 334 334 333 331 331 333 334 334 334
313 314 316 316 316 316 316 316 316 316 316 316 314 317 320 318 329 342 343 345 346 344 344 343 345 347 346 345 344 344 345 346 346 345 344 343 342 342 341 340 339 338 338 337 336 336 336 336 336 336 336 337 338 337 337 337 338 338 338 338 337 337 337 337 337 337 337 338 338 338 339 341 341 340 341 341 341 341 342 342 341 341 341 340 340 339 337 335 334 334 334 332 331 331 333 334 335
313 313 315 316 316 316 316 315 316 316 316 315 317 326 332 329 334 345 347 347 345 345 344 343 345 346 346 345 344 345 345 346 346 345 344 343 342 342 341 340 339 337 336 336 336 336 336 336 336 337 337 337 337 338 338 338 338 339 339 339 339 338 338 338 338 338 338 339 339 339 340 341 341 341 341 341 340 340 340 341 341 341 341 340 340 340 339 337 336 334 334 333 332 331 331 332 334
315 314 315 316 316 316 316 316 316 316 316 315 320 332 340 338 340 346 349 349 345 346 346 344 345 345 345 344 345 346 345 345 344 344 343 342 342 342 341 339 338 336 336 336 336 335 336 337 337 337 337 337 337 338 338 338 339 339 339 341 341 340 340 340 340 340 340 340 339 340 341 341 341 341 341 340 340 339 339 339 339 340 340 340 339 340 340 339 339 337 336 335 334 333 332 332 333
315 314 315 315 315 316 317 316 316 315 316 315 320 334 341 340 343 348 349 348 346 346 346 345 345 345 345 346 346 345 345 344 343 343 342 342 342 341 340 339 337 337 336 336 336 336 337 338 338 338 337 338 338 338 338 339 339 339 340 341 341 340 340 341 341 340 340 340 340 340 341 340 340 340 339 339 339 339 339 338 338 338 339 339 339 339 340 339 340 339 338 337 336 335 333 332 332
314 314 315 315 315 315 315 315 316 315 316 316 323 333 338 342 346 348 347 346 347 347 346 346 346 345 344 344 342 341 341 340 339 340 340 340 341 341 340 338 338 338 337 336 336 337 338 339 338 339 339 339 339 339 339 339 339 339 340 340 340 341 340 341 341 340 339 340 340 340 340 339 338 338 338 338 338 338 338 337 338 338 338 339 339 339 340 340 340 340 339 339 338 338 337 335 333
313 313 313 314 314 313 315 316 315 316 316 321 326 324 332 347 348 346 346 345 346 346 345 346 345 344 341 340 338 337 337 336 335 335 335 336 339 341 339 339 338 338 337 336 337 338 339 339 339 340 341 341 340 340 340 340 340 340 340 340 340 340 341 341 340 340 339 340 340 340 340 339 339 339 338 337 337 337 337 337 337 338 338 338 339 339 340 340 340 340 340 339 340 339 339 338 337
312 312 313 314 311 310 315 316 315 317 318 326 328 320 331 349 343 339 343 344 344 345 346 346 345 344 341 341 339 337 337 337 336 335 334 335 338 340 339 339 340 338 338 337 338 339 339 340 340 340 341 342 341 341 341 340 341 340 339 340 340 340 341 340 340 340 340 340 340 340 339 339 339 339 338 337 337 336 336 336 336 337 337 338 339 339 339 339 339 339 339 339 339 339 339 339 339
312 311 310 312 311 311 316 315 315 317 320 329 328 321 335 348 339 335 341 343 343 343 343 343 343 342 340 340 338 336 337 338 338 337 336 337 339 340 339 340 340 339 339 338 339 340 340 341 341 340 340 341 341 340 341 341 341 340 339 340 340 340 340 340 340 340 340 340 340 340 339 339 339 338 337 337 336 336 336 336 336 337 338 338 338 337 338 338 337 338 338 338 338 339 339 338 338
312 311 309 310 311 311 313 314 315 316 322 329 324 323 338 346 338 338 342 341 340 340 340 340 339 339 338 338 338 337 338 338 339 338 337 339 341 341 340 341 341 340 340 339 340 340 340 341 340 340 340 340 340 341 341 341 340 340 340 341 340 340 340 340 340 339 339 339 339 339 339 339 338 338 337 337 337 336 337 337 338 338 339 339 338 338 338 337 337 337 338 338 338 338 338 337 338
311 311 311 311 311 311 311 312 315 318 321 324 325 331 342 345 340 340 341 339 339 340 339 339 339 338 338 339 339 339 339 338 338 339 338 339 341 341 341 339 338 340 339 339 341 340 339 340 340 340 340 341 341 341 341 340 340 340 340 340 340 340 340 340 339 339 339 338 338 338 338 338 337 338 338 338 338 337 338 338 338 338 338 338 338 339 339 338 337 337 338 338 337 337 337 337 336
310 310 311 312 312 311 311 312 316 319 321 325 331 339 344 344 343 341 339 336 337 340 339 338 338 339 339 340 340 339 340 339 339 340 337 338 341 341 341 337 334 337 339 339 339 338 339 341 341 341 341 341 341 341 340 340 341 340 340 340 340 339 339 339 339 338 338 338 338 337 338 338 337 337 337 337 337 337 337 337 337 337 337 337 338 338 338 338 337 336 336 337 337 336 336 336 336
313 312 311 311 310 311 314 316 320 321 321 326 332 337 342 342 342 342 337 333 335 339 339 338 338 338 338 338 339 339 340 340 341 341 339 340 340 339 340 338 336 337 337 338 337 334 337 341 341 341 341 341 340 340 340 340 340 340 340 340 339 339 338 338 338 338 338 337 336 336 336 336 336 336 336 336 336 336 337 336 336 336 335 336 336 336 336 335 335 334 334 334 335 335 334 334 334
314 313 312 312 310 311 317 320 325 325 323 328 333 335 339 338 339 342 337 334 337 339 339 338 337 336 335 336 339 339 339 338 338 339 340 341 339 337 338 337 339 337 335 337 336 334 338 340 340 341 341 341 340 341 341 341 341 341 341 340 338 338 337 337 337 336 336 336 335 335 335 335 335 335 335 334 334 335 335 334 334 334 334 334 334 334 334 334 333 333 333 333 333 333 333 333 333
314 313 311 311 310 315 320 321 325 327 327 332 336 335 336 336 339 341 338 337 340 339 339 338 338 337 336 338 338 337 335 333 333 334 335 336 337 337 337 336 337 337 336 337 337 338 340 339 340 341 341 341 341 341 341 341 341 340 340 338 337 337 336 336 335 335 334 334 334 334 334 333 333 334 334 334 333 333 333 333 334 333 333 333 333 333 332 333 332 332 333 333 333 332 332 332 332
313 313 310 310 313 319 322 323 323 324 327 332 335 335 337 338 339 340 340 340 340 339 339 338 339 338 337 336 335 334 332 331 331 332 331 332 333 335 335 336 336 336 337 338 338 338 339 339 340 341 341 341 340 339 339 339 339 339 338 337 336 336 335 335 334 333 333 333 332 332 332 332 332 332 333 332 332 332 332 332 333 332 332 332 332 332 332 332 332 332 332 332 332 332 332 331 332
313 313 310 310 315 317 316 321 326 324 327 333 335 337 339 339 339 340 339 339 339 340 339 338 338 338 337 335 334 334 332 332 331 331 331 331 331 332 333 333 333 335 337 337 337 338 338 338 338 339 339 339 338 338 338 338 338 337 337 336 335 334 333 333 333 332 332 331 331 331 331 331 331 331 331 331 331 331 331 331 331 331 331 330 330 330 330 331 331 331 331 331 331 332 332 331 331
313 314 311 311 314 315 317 322 326 326 329 334 333 332 335 339 340 340 339 338 339 339 339 338 337 336 336 335 334 334 333 332 330 329 331 331 330 331 332 332 332 334 336 336 336 336 337 337 337 337 337 337 337 337 337 336 336 336 335 334 333 333 332 331 331 331 330 330 329 329 329 329 329 329 329 329 328 328 329 329 329 329 329 329 328 328 328 329 329 329 329 330 330 331 331 332 331
311 314 313 312 315 319 323 324 323 323 327 333 327 321 328 338 339 339 339 338 339 339 339 338 336 336 335 335 333 332 332 331 330 330 330 331 330 330 332 332 332 333 334 334 334 335 336 336 336 336 335 335 336 336 336 335 335 335 335 334 334 333 332 331 330 330 329 329 327 327 326 325 325 325 325 325 325 325 325 325 326 326 326 325 325 325 325 325 325 326 327 327 328 328 329 331 331
311 312 312 315 320 321 322 321 319 318 321 330 325 318 328 338 338 339 339 339 339 338 338 338 336 336 336 335 333 332 332 331 331 331 331 331 330 330 330 331 331 331 332 332 332 333 334 334 334 334 334 334 335 335 335 335 335 335 334 334 333 332 331 330 329 328 328 327 326 325 323 321 320 320 321 321 322 322 322 322 322 323 323 322 322 322 322 322 322 323 324 324 325 325 326 327 328
311 312 312 316 320 321 320 319 316 315 319 329 327 321 327 333 335 339 339 338 340 340 339 338 336 336 337 335 333 332 332 330 330 331 331 331 330 329 329 329 329 329 329 329 329 330 331 332 332 332 332 332 333 333 334 334 334 333 333 332 331 330 329 328 327 326 325 325 324 324 322 320 319 319 319 319 319 319 319 319 319 320 320 320 319 319 319 319 320 321 322 322 322 323 323 324 324
312 312 312 314 318 320 319 316 315 318 321 322 323 320 320 323 331 338 338 339 340 340 339 338 336 335 336 335 333 333 331 330 330 330 330 330 330 329 329 328 328 327 327 327 327 327 327 328 329 329 329 329 329 330 331 331 331 331 331 330 329 328 327 326 325 324 324 323 323 322 321 320 319 318 317 317 317 316 316 316 316 317 317 317 317 317 318 318 318 319 319 319 319 320 321 321 322
313 313 313 314 317 319 318 316 315 318 319 317 319 318 314 319 331 336 336 337 338 339 339 337 335 334 334 334 332 333 331 330 330 330 331 330 329 328 327 327 327 325 325 325 325 324 324 325 326 326 326 326 326 326 327 328 328 328 328 328 327 326 325 324 323 323 323 322 321 320 319 318 317 316 314 314 314 313 313 313 313 313 313 313 313 314 314 314 315 316 316 317 317 318 318 319 319
312 313 314 314 315 317 316 316 316 316 316 314 317 318 312 318 331 334 333 336 336 337 338 336 334 333 334 333 331 331 330 329 328 328 329 328 327 327 326 325 325 324 323 323 323 323 323 323 323 323 322 323 323 323 324 324 324 324 324 324 324 323 323 323 322 321 321 320 319 318 317 316 314 313 312 312 311 311 310 310 310 310 310 310 310 311 311 311 312 313 314 314 314 314 315 315 315
312 313 313 312 313 314 313 314 315 315 312 311 315 319 314 315 324 331 332 334 333 335 337 336 335 333 333 332 330 329 328 327 326 325 326 326 326 326 326 325 324 323 322 322 322 322 321 321 321 321 321 321 321 321 321 321 321 321 321 320 320 320 320 320 319 318 317 317 316 315 315 314 312 312 311 310 310 309 309 308 308 308 308 308 308 309 309 309 310 312 312 312 312 312 311 311 312
311 311 311 311 311 312 313 312 313 312 311 312 314 319 316 313 320 330 332 333 333 334 335 335 334 334 334 332 330 328 327 325 325 325 325 326 325 325 325 324 323 322 321 320 320 320 320 320 320 320 320 320 320 319 319 319 318 318 318 318 317 317 317 317 316 315 315 314 314 313 313 312 311 310 310 309 309 308 308 307 307 307 307 307 307 307 308 307 309 310 310 310 311 310 310 310 310
310 310 310 310 311 314 314 313 312 311 312 315 316 318 316 313 322 332 331 331 334 334 334 334 334 334 333 331 329 327 326 325 325 325 325 326 325 324 323 323 322 321 321 321 320 320 320 320 319 319 319 319 318 318 318 317 317 316 316 316 315 315 314 314 313 313 313 312 312 312 311 310 310 309 309 308 307 307 307 306 306 306 306 306 305 306 307 306 307 309 309 309 309 309 309 309 309
309 311 312 310 310 313 313 312 311 311 313 316 318 318 313 314 325 334 332 331 332 333 334 334 334 332 330 328 326 326 325 325 326 325 325 327 326 324 324 323 322 322 321 321 321 320 320 319 319 319 318 317 317 317 316 315 315 314 314 313 313 313 312 312 311 311 311 310 310 310 309 309 309 308 308 307 306 306 306 305 305 305 305 305 304 305 306 306 307 308 308 308 308 308 308 309 309
310 311 311 310 311 311 311 314 314 312 314 319 319 318 318 323 330 332 332 332 331 332 334 334 333 331 328 327 326 326 326 325 325 325 325 325 325 324 324 323 322 322 321 321 320 320 320 319 318 318 317 316 316 315 314 314 313 312 312 312 311 311 311 311 310 309 309 309 309 309 308 308 308 307 307 306 305 305 305 305 304 304 304 304 304 304 305 305 306 307 307 307 306 307 308 308 308
310 310 309 311 314 313 311 314 317 316 316 319 318 318 321 327 330 331 332 332 331 333 333 333 333 330 328 329 329 327 326 325 326 326 324 325 324 323 323 322 321 321 321 320 320 319 319 318 318 317 316 315 315 314 313 312 312 311 310 310 310 310 309 309 309 308 308 308 308 308 307 307 307 306 306 305 305 304 304 304 304 304 303 303 303 304 304 304 305 305 306 305 305 306 307 307 307
310 308 309 312 314 314 312 311 315 315 314 317 318 317 319 319 325 332 333 331 333 334 334 333 332 330 330 330 329 327 326 325 325 325 324 325 324 322 322 321 321 320 320 319 319 318 318 317 317 316 315 315 314 312 312 311 310 310 309 309 309 309 308 308 308 308 308 307 307 307 306 306 306 305 305 305 304 304 304 303 303 303 303 303 302 303 303 304 304 305 305 304 304 305 306 306 306
311 310 311 312 311 312 311 311 314 312 312 319 319 317 317 315 323 333 333 331 334 334 334 334 331 330 330 330 328 327 325 325 325 324 323 324 323 322 321 320 320 319 318 318 318 317 317 316 315 315 314 313 312 311 311 310 310 309 309 308 308 308 308 307 307 307 307 306 306 306 306 305 305 304 304 304 303 303 303 303 303 303 302 302 302 302 303 303 303 304 304 304 304 304 304 305 305
311 311 311 311 311 311 311 312 313 312 312 317 319 319 317 316 325 333 332 332 334 334 334 333 331 330 330 329 327 326 326 325 324 322 322 323 322 321 320 320 319 318 317 317 317 316 315 315 314 313 313 312 311 311 310 309 309 308 308 308 307 307 307 307 307 306 306 305 305 305 304 304 303 303 303 303 303 303 302 302 302 302 302 302 302 302 302 303 303 303 303 303 303 304 304 304 304
309 309 310 310 311 311 312 312 310 311 311 313 321 324 319 317 327 332 332 333 334 333 333 333 331 330 330 329 326 326 326 325 324 322 322 323 322 320 319 318 318 317 317 316 316 315 315 314 313 312 312 311 310 310 309 308 308 308 307 307 306 306 306 306 305 305 304 304 304 303 303 303 302 302 302 302 302 302 302 302 302 302 302 301 301 302 302 302 302 303 303 303 303 303 303 304 304
309 309 310 310 311 310 312 313 311 311 310 311 318 319 316 321 330 330 332 334 334 333 332 332 332 330 330 328 326 326 325 324 323 322 322 323 321 319 318 317 317 317 316 316 315 315 314 313 312 312 311 311 310 309 308 308 307 307 306 306 306 305 305 305 304 304 303 303 303 302 302 302 302 302 301 301 301 301 301 301 301 301 302 301 301 301 301 301 302 302 302 303 303 303 303 303 303
Wind_Speed
6 6 6 5 5 7 6 3 5 3 3 8 8 8 7 5 5 9 8 4 5 1 2 4 3 4 3 5 3 2 8 7 5 2 1 5 10 15 17 21 24 23 23 22 21 18 17 18 16 14 13 13 16 19 19 18 17 17 17 17 16 16 16 16 16 16 15 15 14 15 15 14 14 13 14 13 13 13 12 13 12 12 13 13 15 15 14 14 14 13 14 14 14 13 13 13 12
5 5 4 4 3 6 3 1 7 6 5 8 6 7 9 8 8 11 6 4 4 3 1 1 2 4 3 5 3 2 5 10 8 6 6 11 14 15 18 22 24 23 23 22 21 19 18 17 17 15 14 15 16 18 18 17 16 17 17 17 17 17 16 16 16 15 15 14 14 14 14 14 14 13 13 13 13 13 12 12 12 13 13 13 14 14 14 14 13 13 14 13 13 12 11 11 10
3 3 3 4 3 4 2 2 7 8 8 9 6 4 6 9 12 10 4 2 2 4 2 3 3 3 4 6 3 2 3 7 10 10 9 14 13 15 21 22 23 23 22 21 21 19 18 17 17 16 15 15 16 18 18 17 17 16 17 17 17 17 16 16 15 14 14 13 13 14 14 14 13 13 13 13 13 13 12 12 13 13 13 13 14 14 13 13 12 13 13 12 12 11 10 9 9
2 2 3 5 4 3 4 5 6 8 9 8 7 3 5 11 11 7 2 3 6 4 4 5 4 2 5 4 2 1 5 6 9 10 9 12 14 19 22 22 23 22 20 20 20 18 17 18 18 17 16 15 16 18 18 17 17 16 16 16 17 16 16 16 15 14 14 13 14 14 14 13 14 13 13 13 13 13 12 12 13 13 13 13 13 13 13 12 12 11 11 11 10 10 10 9 9
2 3 3 5 4 3 4 5 6 8 9 8 8 4 6 11 9 3 4 6 5 3 3 6 3 3 2 3 2 1 6 7 9 10 11 14 18 22 22 21 22 20 19 19 19 18 18 18 18 17 16 15 15 17 18 17 17 16 16 16 17 17 16 16 15 14 14 14 14 14 14 13 13 13 13 13 13 13 12 12 12 13 12 12 12 12 12 11 10 10 9 9 8 9 9 9 8
4 4 4 5 3 2 4 7 8 9 10 10 9 8 8 9 5 1 4 4 3 3 3 6 3 4 4 3 4 3 5 5 9 10 12 17 20 22 21 21 20 19 19 19 18 18 18 19 18 18 16 15 16 18 18 17 17 16 16 16 17 17 16 16 15 14 14 14 14 14 14 13 13 13 13 13 13 13 13 12 12 12 12 11 11 11 11 10 9 8 8 8 7 8 9 8 8
5 5 4 5 2 2 8 10 10 10 9 9 9 10 7 3 1 3 4 4 5 5 4 5 4 4 4 4 3 6 4 2 8 10 14 19 22 21 20 20 19 19 19 19 18 18 19 19 19 18 17 16 16 18 17 17 16 16 16 16 17 16 15 15 14 14 14 14 14 14 14 13 13 13 13 13 12 12 12 12 11 11 11 10 9 9 9 8 8 7 7 7 7 8 9 8 8
5 5 2 5 5 4 8 10 11 11 6 5 7 8 4 2 3 4 6 5 5 4 5 5 7 7 4 5 2 6 5 4 9 14 18 21 22 21 20 19 20 19 18 19 19 18 18 18 19 18 17 17 16 17 17 16 16 15 15 16 16 16 15 15 15 14 14 14 14 13 14 13 13 13 12 12 11 11 11 10 10 9 9 8 7 7 7 7 6 7 7 7 8 8 9 8 9
7 5 2 5 7 6 8 10 10 10 8 6 7 7 5 4 4 6 8 7 5 4 5 5 8 7 7 6 4 8 7 8 13 17 19 21 21 20 19 19 19 19 19 19 18 18 17 17 19 17 17 16 16 16 16 16 16 15 16 16 16 16 15 15 14 14 13 13 13 13 13 13 13 12 11 10 9 9 9 9 8 7 6 6 5 5 6 6 6 6 7 7 8 8 9 9 10
6 5 4 5 7 9 9 9 8 8 9 8 6 7 7 6 7 9 10 11 8 7 7 5 7 7 8 9 7 7 8 12 17 18 19 20 19 19 18 18 18 19 20 19 18 18 17 16 17 17 17 16 16 16 16 16 16 16 16 16 16 16 14 14 14 13 12 13 13 12 12 12 11 10 10 9 9 10 10 9 8 6 5 4 4 3 4 5 6 6 7 7 7 8 9 9 10
5 4 4 5 8 9 9 9 8 7 6 5 5 7 7 6 8 9 11 13 10 9 8 6 8 8 9 8 6 7 10 15 17 19 20 19 18 18 18 17 17 19 20 19 19 19 17 16 15 16 16 15 15 15 16 16 17 17 16 16 16 15 14 14 14 12 12 13 12 11 11 11 10 9 10 10 10 11 11 10 9 8 6 5 4 3 3 4 5 6 7 7 7 8 8 9 9
6 5 4 7 8 8 9 9 8 6 4 5 6 5 4 4 7 9 11 12 12 12 11 9 7 9 9 7 6 8 12 15 18 19 19 18 18 17 17 17 17 18 19 19 19 19 18 16 14 14 15 15 15 15 16 16 17 16 16 15 14 14 13 13 13 12 12 12 12 11 10 10 9 9 9 10 10 10 10 10 9 8 7 7 6 4 3 4 5 6 7 7 7 7 8 8 7
6 5 6 7 7 7 8 8 7 6 5 6 4 5 3 3 6 9 11 12 14 14 13 11 8 9 8 7 8 9 12 15 19 19 19 18 17 17 17 17 18 18 18 18 18 19 18 16 14 13 13 14 13 14 15 15 16 16 16 14 14 13 13 13 12 12 12 11 11 11 10 9 9 8 8 8 9 10 10 10 8 8 7 8 8 6 4 4 5 7 7 6 6 6 7 6 6
6 5 6 7 5 7 7 8 6 6 6 3 5 6 2 4 5 7 9 11 14 14 11 11 10 10 8 8 8 8 12 17 20 19 19 18 18 18 17 17 18 18 17 17 17 18 17 16 16 14 13 13 12 11 12 12 14 15 15 14 14 13 12 12 12 12 12 11 11 10 9 8 7 7 6 7 8 9 9 9 9 8 7 7 7 7 5 4 5 7 8 7 6 6 6 6 5
5 4 5 6 5 7 7 8 6 6 5 7 8 3 3 4 3 6 9 11 11 10 7 10 11 8 8 9 8 11 16 20 21 20 20 19 19 18 18 18 18 17 16 16 16 16 15 15 15 15 14 13 11 10 11 11 11 13 14 14 13 12 12 12 11 12 11 10 10 9 8 7 7 6 6 6 6 8 8 8 8 8 7 7 6 6 6 4 5 7 8 7 6 5 5 5 5
5 4 5 6 7 8 7 7 6 6 3 9 6 1 5 3 3 6 7 9 5 8 6 10 10 2 6 10 11 19 22 23 22 21 21 20 19 18 18 17 17 16 15 15 15 14 14 14 15 14 13 12 11 11 11 10 10 12 13 13 12 12 11 11 11 10 9 9 8 8 7 7 6 6 5 6 6 6 7 6 7 7 7 7 6 6 6 4 5 7 8 8 7 6 5 5 6
4 5 6 6 8 9 6 8 6 3 4 9 4 2 6 3 3 4 3 8 6 10 8 8 7 1 2 8 20 27 25 25 24 22 21 20 19 17 16 15 15 15 14 15 14 13 13 13 13 13 12 11 11 11 11 11 10 12 12 12 12 11 11 10 9 8 7 7 6 6 6 5 4 3 4 5 5 4 4 5 5 5 6 6 6 6 5 4 4 6 8 9 7 6 5 5 6
6 6 7 7 8 8 5 8 5 1 4 6 2 3 6 7 2 3 5 9 8 11 9 7 8 7 9 18 27 28 25 26 25 22 20 18 17 16 15 15 14 13 14 13 13 13 13 12 12 12 12 11 11 11 11 11 11 11 11 11 10 9 9 9 8 7 7 6 5 4 4 3 3 2 2 3 4 3 3 4 3 4 4 4 5 6 6 5 4 5 9 9 8 7 5 4 6
8 6 7 8 7 3 3 5 4 3 2 1 3 3 6 8 3 4 8 11 12 12 10 9 10 12 14 20 25 26 25 24 22 20 19 17 16 16 15 15 14 13 13 12 12 12 12 12 12 12 12 11 11 11 11 11 11 11 11 11 9 8 8 7 8 7 6 6 4 4 3 3 4 4 4 4 6 5 3 3 3 3 3 3 4 6 6 7 6 3 8 9 9 6 3 3 5
9 7 7 8 5 2 3 4 3 3 3 5 4 5 7 5 2 5 8 11 13 12 11 12 13 14 15 18 22 25 24 23 20 19 18 17 16 16 15 15 15 14 12 12 12 11 11 12 11 11 11 11 10 10 10 11 11 10 10 10 9 8 8 6 6 5 4 5 4 3 4 5 5 5 4 5 6 5 3 3 4 4 3 3 3 4 5 6 8 4 6 9 7 4 3 3 4
8 8 9 5 3 5 5 5 5 3 4 5 5 7 6 0 2 5 8 11 12 11 11 10 12 16 16 18 20 23 23 21 20 18 18 17 17 16 15 15 15 14 13 12 12 11 11 11 11 11 10 10 9 9 10 10 10 10 9 10 9 8 7 6 6 5 5 5 4 4 4 4 4 3 4 3 3 3 2 3 4 4 2 1 2 3 1 3 4 3 4 7 6 5 5 3 3
6 10 11 4 3 6 4 5 4 2 3 5 5 7 4 1 4 5 9 10 6 5 8 6 9 15 16 17 18 20 20 19 19 19 19 18 18 17 16 15 15 15 14 13 12 12 11 11 11 11 10 9 9 9 10 10 11 10 9 9 9 8 8 7 7 6 6 5 5 4 3 3 3 3 3 2 2 2 2 2 3 3 3 1 1 1 1 1 1 2 3 5 6 6 5 4 4
8 9 11 7 5 5 3 3 2 2 5 6 5 6 5 5 5 5 9 6 4 2 4 6 11 16 17 18 17 17 18 17 18 19 19 19 18 17 17 16 15 15 13 13 13 12 12 11 10 10 10 10 9 10 10 11 10 10 10 9 9 9 8 7 7 7 6 5 4 3 3 3 2 2 2 2 2 2 2 2 2 2 2 2 1 1 1 1 1 1 2 4 6 7 7 6 6
11 8 8 10 9 7 5 4 3 4 6 6 6 6 7 8 4 6 8 5 6 2 5 9 14 18 18 17 15 16 17 17 18 18 18 18 19 18 17 16 15 14 14 13 12 12 12 11 11 10 10 10 10 10 11 11 10 10 10 9 9 8 8 7 7 6 5 4 3 2 2 2 2 1 1 2 2 2 2 1 1 1 1 1 1 1 1 1 1 1 1 3 5 7 7 7 7
14 11 6 7 8 8 8 6 6 6 5 6 6 8 8 7 4 7 7 6 5 5 10 13 16 17 17 16 15 15 15 16 18 18 17 16 17 17 16 16 15 14 14 14 13 12 12 11 11 10 11 11 11 11 11 10 10 10 10 9 9 8 7 7 6 6 5 4 2 2 2 3 2 2 2 2 2 2 1 1 0 0 0 0 0 1 0 1 2 2 2 3 5 7 8 8 8
12 15 8 6 8 6 7 7 7 6 5 5 6 6 3 3 6 6 6 6 6 8 13 15 17 17 16 16 15 14 14 15 15 16 17 17 16 17 15 15 15 14 14 14 13 13 12 12 12 11 11 11 11 11 11 10 10 9 9 8 8 8 7 7 6 6 4 4 3 2 2 3 2 2 2 2 2 2 1 1 0 0 0 0 1 1 1 1 2 2 3 4 4 5 7 8 8
5 14 11 8 9 6 6 6 7 5 5 6 6 3 3 5 7 5 5 5 8 11 13 15 17 17 17 16 14 13 13 13 14 15 17 17 16 16 16 15 15 15 14 14 13 13 13 13 13 12 12 12 11 11 10 9 9 8 8 8 7 7 7 6 6 5 5 4 3 3 2 2 2 2 2 2 2 1 1 1 1 1 1 1 1 1 2 2 2 3 4 4 5 6 7 7 9
2 8 10 11 11 9 8 8 7 6 5 7 7 4 7 6 4 5 7 6 9 13 14 15 16 15 16 15 13 11 12 13 14 14 15 16 15 15 16 16 16 15 15 14 14 14 14 14 14 13 13 12 12 11 10 9 8 8 8 7 7 6 6 6 5 5 5 4 3 3 3 2 2 2 2 2 2 2 2 2 2 1 1 1 1 2 3 3 3 3 4 5 6 7 8 9 10
4 5 7 10 11 10 12 11 9 7 5 6 9 8 8 7 6 9 10 9 11 14 14 14 14 13 13 13 11 10 11 14 13 10 9 7 10 14 14 15 16 15 15 14 14 15 16 15 14 14 13 12 12 11 10 9 8 8 7 7 6 5 5 6 5 5 5 4 4 4 4 3 3 3 3 3 2 2 2 2 2 2 1 1 2 2 3 3 3 3 4 5 5 6 8 9 10
7 7 6 6 8 10 13 12 9 8 5 7 11 8 7 7 7 8 10 13 14 14 14 13 13 12 11 11 11 11 11 14 13 12 11 4 4 12 13 14 14 14 14 15 16 16 15 15 14 13 13 11 11 10 9 8 8 7 6 6 6 5 5 5 6 5 5 5 4 5 4 4 4 4 4 3 2 2 2 2 2 2 2 2 3 3 3 3 3 4 4 5 5 6 8 8 9
8 8 6 6 6 8 13 12 11 9 5 8 12 7 6 7 6 2 5 14 15 14 13 12 11 10 10 11 10 10 9 13 16 16 15 7 6 11 14 15 14 13 14 15 16 16 15 15 13 14 13 11 10 9 8 8 7 7 7 7 6 6 5 5 5 5 5 5 5 5 5 4 4 4 3 3 3 3 2 2 1 1 1 2 2 3 3 3 4 4 5 5 6 7 8 8 9
9 8 7 7 6 7 12 10 11 9 5 9 11 4 6 7 6 4 7 13 14 14 13 11 11 9 8 8 8 9 7 11 16 17 18 13 10 12 14 14 14 13 14 15 15 15 15 14 13 14 14 11 10 9 8 7 7 7 8 7 7 7 6 5 5 5 6 6 5 5 5 5 5 5 4 3 3 3 2 1 1 1 1 2 3 3 3 4 4 5 5 6 7 7 8 9 9
9 9 7 9 9 7 10 8 8 7 7 11 11 5 7 7 7 9 10 14 15 15 15 13 14 11 8 7 7 8 5 6 12 14 17 16 13 13 13 13 14 13 15 16 14 14 14 14 14 14 13 11 10 9 8 8 8 9 9 8 8 8 7 6 6 6 6 6 5 5 5 5 5 5 5 4 4 4 3 2 2 2 2 3 4 4 3 4 5 5 6 6 7 8 9 9 10
8 9 7 9 12 9 9 9 8 8 9 11 8 4 9 11 12 12 11 13 12 13 15 14 12 12 11 8 8 9 5 5 8 11 16 14 13 14 14 14 15 15 17 15 13 12 13 14 15 13 12 11 10 10 9 9 10 10 9 9 9 8 7 7 8 7 6 6 5 5 5 5 5 6 5 5 4 4 3 3 3 3 3 3 4 4 4 4 5 6 7 7 7 8 9 10 10
11 11 8 8 11 10 9 9 9 11 12 10 8 8 10 12 12 13 11 10 8 9 12 13 11 12 12 9 9 8 5 5 7 10 14 13 12 12 14 16 16 15 15 14 12 11 12 14 14 13 12 11 11 10 11 10 10 9 9 9 9 8 7 7 8 7 7 6 7 6 5 5 5 6 5 5 4 4 4 4 4 4 4 4 5 5 5 6 7 7 8 7 7 8 9 10 11
13 14 10 8 10 8 6 9 8 10 13 11 10 10 11 12 12 12 11 9 10 11 10 11 10 11 11 9 9 8 4 4 6 10 13 13 12 10 13 16 17 17 15 13 13 12 12 13 12 12 12 12 11 11 10 9 9 9 9 9 9 8 7 7 7 7 7 7 8 7 7 6 6 6 6 6 6 5 5 5 5 6 5 5 5 6 6 7 8 8 8 9 9 9 9 9 10
12 13 11 9 10 7 8 10 7 7 10 9 9 10 11 12 11 12 11 10 12 13 12 11 10 9 9 10 11 10 6 4 5 6 7 9 13 12 11 14 15 16 16 14 14 12 10 11 12 12 11 11 10 9 8 7 7 9 9 10 11 9 8 8 9 9 8 8 8 8 8 8 7 7 7 8 7 6 6 6 6 6 6 6 6 6 6 7 7 7 8 8 9 10 10 9 10
10 11 11 9 8 8 9 10 7 6 7 7 8 10 10 10 10 10 11 12 12 13 13 12 13 11 9 11 13 12 8 7 9 11 11 8 6 11 11 13 14 13 15 16 14 12 10 11 12 12 10 10 9 9 9 9 8 8 10 11 11 9 9 9 10 10 10 10 9 8 8 8 8 7 7 6 6 6 5 5 5 5 6 7 6 6 6 7 7 7 8 9 9 10 10 9 10
7 8 10 8 8 10 9 9 9 8 6 8 10 9 8 9 9 9 10 10 9 11 12 13 14 12 11 11 12 12 9 8 8 11 14 13 10 10 10 10 12 12 14 15 13 12 12 12 12 12 11 10 10 9 9 10 10 10 10 11 10 9 9 9 9 9 9 10 9 7 7 6 6 6 6 6 6 7 7 6 5 5 6 6 8 8 7 7 8 7 8 9 11 11 10 9 9
7 8 9 8 10 10 7 9 10 8 6 11 13 9 7 8 8 9 8 7 7 9 11 12 12 12 12 12 11 11 10 9 9 10 11 10 10 8 8 8 10 11 13 14 13 13 13 13 13 12 11 11 10 10 11 11 11 11 11 11 10 10 10 9 9 8 8 9 8 7 7 6 6 6 6 6 7 7 7 7 6 6 7 8 9 10 9 9 9 9 9 10 12 13 12 11 10
8 8 8 9 11 9 7 11 11 9 9 13 14 8 5 7 8 7 7 7 8 9 12 11 10 11 12 11 9 10 11 10 9 10 11 10 6 6 7 8 9 10 13 13 12 13 14 14 13 12 11 11 11 11 11 11 12 12 12 12 11 10 9 8 8 8 8 8 8 7 7 6 6 6 6 7 7 6 6 7 6 7 8 9 9 10 9 9 9 11 12 11 12 14 14 14 12
8 7 5 6 12 11 13 16 13 9 9 13 13 7 6 8 8 8 7 9 9 9 12 12 11 11 11 10 9 10 12 11 10 10 11 13 10 7 7 9 10 12 13 11 11 13 14 14 13 12 12 11 10 10 9 9 10 11 12 11 10 10 9 8 8 8 7 7 7 7 7 8 7 7 7 8 7 7 7 8 7 7 8 9 9 8 9 10 10 10 12 12 12 14 15 15 14
7 9 4 5 12 14 16 16 12 8 8 12 12 8 5 7 9 11 10 10 11 10 12 13 12 11 10 10 10 12 13 12 12 12 13 14 14 10 8 8 10 12 12 11 11 13 14 14 13 13 12 11 9 8 8 7 7 8 8 8 8 8 9 9 8 7 6 6 6 6 7 8 9 9 9 10 9 8 7 8 8 8 8 9 9 8 10 12 11 10 11 12 12 13 13 14 14
5 12 10 7 11 14 14 13 10 7 8 11 11 8 6 6 8 12 12 10 11 11 12 13 13 12 10 11 11 12 13 14 14 13 13 16 16 13 10 10 11 12 12 10 10 13 15 14 13 13 12 11 9 8 8 8 8 8 8 8 8 8 8 8 7 6 6 5 5 5 5 7 8 9 10 9 9 9 8 9 9 9 8 9 9 10 11 12 11 11 12 12 11 11 11 12 13
6 12 12 8 9 11 11 10 7 6 8 9 10 9 8 7 8 11 11 11 11 12 14 14 15 14 11 12 12 11 12 14 15 14 14 17 17 15 13 13 12 12 13 12 12 15 17 17 15 15 14 13 11 10 9 8 8 7 7 7 8 7 7 7 6 5 5 4 4 5 5 6 7 8 9 9 9 10 10 9 9 9 9 9 10 10 10 11 11 11 11 11 11 11 11 11 12
8 12 11 8 7 8 8 7 6 7 8 9 12 12 10 7 9 10 10 12 12 13 14 14 15 16 13 12 12 11 11 11 13 14 16 18 18 17 15 15 14 12 14 16 16 16 16 16 16 16 16 15 13 12 11 9 7 6 6 6 7 7 6 6 5 5 4 4 4 5 5 6 6 7 9 10 10 11 11 11 10 10 11 10 11 10 10 11 10 10 10 10 10 11 10 10 11
9 11 10 8 7 6 5 5 4 7 8 10 14 15 12 7 8 10 10 12 15 14 14 14 15 16 14 13 12 11 11 11 12 13 16 18 19 18 17 16 15 13 14 15 17 16 14 14 15 15 15 14 13 12 12 11 10 8 8 8 8 7 6 5 5 5 5 5 5 5 6 7 7 8 9 10 12 12 12 13 12 12 12 12 11 11 11 11 10 10 10 10 10 10 10 10 10
10 10 9 8 7 5 5 5 4 7 8 9 14 15 12 9 7 11 12 12 16 16 16 18 19 18 16 13 12 11 10 11 12 12 14 17 18 19 18 17 15 15 15 15 15 16 14 14 15 15 14 13 13 13 13 13 12 11 11 10 9 8 7 7 7 6 6 6 6 6 7 7 8 9 10 11 12 12 12 13 13 12 12 12 12 11 11 11 10 10 11 11 11 11 11 11 11
11 11 10 9 8 7 8 8 7 8 5 5 11 13 10 7 5 12 16 15 15 16 16 18 19 19 16 14 13 11 10 11 12 12 13 14 17 18 18 17 16 15 16 17 18 16 15 14 14 14 13 12 13 14 14 13 13 12 11 11 10 10 10 9 9 8 7 8 8 8 8 8 9 10 11 11 12 12 12 13 13 12 12 12 12 12 12 12 11 10 11 12 11 11 12 12 12
13 12 11 10 9 8 9 8 8 8 4 4 9 9 8 7 4 8 15 15 15 15 16 17 18 17 15 14 13 12 11 11 11 11 12 12 15 17 18 17 16 16 15 15 15 15 14 13 13 14 13 12 12 13 14 13 13 12 11 10 10 10 11 10 10 10 9 9 9 9 9 9 10 11 11 11 11 12 12 13 13 13 13 13 14 14 13 13 13 11 11 13 12 11 12 12 12
13 11 10 10 7 7 8 7 9 10 7 7 9 7 6 7 3 1 6 12 14 13 14 16 16 15 14 13 13 13 13 11 10 11 12 14 16 17 18 18 17 17 16 14 13 13 13 13 13 13 13 12 12 13 13 13 12 11 11 11 10 10 10 10 10 10 10 10 10 10 10 10 10 11 11 11 12 12 12 13 14 14 14 14 15 15 14 13 13 11 11 13 12 11 12 12 12
11 10 10 10 8 6 4 1 2 6 7 7 9 5 1 2 3 1 3 9 14 14 15 17 16 15 14 13 13 13 13 11 12 12 12 16 18 17 17 18 17 17 16 14 14 13 14 13 13 13 13 12 12 12 12 12 12 11 11 11 11 10 10 10 11 11 11 11 11 11 10 10 11 11 11 12 12 13 13 13 14 15 15 15 15 16 15 14 13 12 12 13 13 13 12 12 12
8 10 10 8 6 5 5 3 5 5 6 7 8 6 3 3 4 4 6 11 15 15 16 17 17 17 16 13 13 14 13 12 13 13 14 17 18 18 18 17 16 16 16 15 14 14 14 14 14 14 13 11 11 11 11 11 11 12 11 11 12 11 11 11 11 12 11 11 10 11 11 11 11 11 11 11 11 12 13 12 13 14 15 15 15 15 15 14 13 12 12 13 15 14 13 12 13
7 9 9 6 2 3 5 5 5 6 7 5 8 10 8 7 5 7 11 14 15 16 17 17 17 17 17 15 14 14 14 14 14 14 15 18 19 18 18 17 16 16 16 16 15 14 14 13 14 14 13 12 11 11 11 10 11 11 12 12 12 12 12 12 12 12 11 11 11 11 11 11 11 11 11 11 11 12 12 12 13 13 14 15 16 15 15 15 14 13 12 13 14 15 13 13 13
6 8 11 8 5 6 7 6 6 9 9 5 9 12 10 9 7 10 15 16 17 19 18 18 19 19 17 15 16 16 15 14 14 14 14 17 19 19 19 18 17 16 16 16 15 15 14 14 14 14 13 13 11 10 10 10 10 11 11 12 11 12 12 12 12 12 12 12 12 12 12 12 12 12 12 12 12 12 12 12 13 13 14 15 16 15 14 14 14 13 13 13 14 15 14 13 13
7 8 10 9 7 7 7 7 5 7 8 6 8 9 8 8 8 13 18 19 21 22 20 20 21 20 18 16 16 16 16 14 13 14 14 16 19 20 20 19 18 17 16 16 15 15 15 15 14 14 14 13 11 11 11 11 11 11 12 12 13 13 13 13 13 13 13 13 12 12 12 12 12 13 13 13 12 12 12 13 13 14 14 15 15 15 14 14 14 14 13 13 14 15 14 14 14
9 9 10 10 6 3 5 8 7 6 7 7 7 6 6 6 8 13 19 20 22 23 22 21 20 20 19 17 17 17 15 15 15 14 14 18 20 20 20 20 20 19 17 16 16 15 15 15 14 14 13 12 11 11 11 11 12 12 13 14 14 14 14 14 14 14 14 13 13 13 12 13 13 13 13 13 12 12 12 13 13 14 15 15 15 15 15 14 14 14 14 13 14 15 15 14 14
12 9 9 11 8 5 6 8 7 7 6 6 6 6 5 5 7 12 17 18 19 21 21 18 19 21 19 17 18 18 16 16 16 15 15 19 21 21 21 20 20 19 18 17 16 15 15 14 14 13 12 11 10 10 11 12 12 13 14 14 14 14 14 14 14 14 14 14 13 13 13 13 13 13 13 13 13 12 13 13 13 14 14 15 15 15 15 14 14 14 14 14 14 15 15 15 15
Wind_Direction
334 324 321 317 317 292 265 280 293 263 279 286 288 290 293 314 332 302 291 296 296 73 1 299 258 246 252 301 260 77 33 8 5 353 5 96 130 141 143 142 143 144 139 137 138 138 138 139 136 131 126 127 131 130 127 126 123 122 122 119 117 115 116 118 121 124 124 121 116 114 112 109 108 108 107 105 105 101 101 102 102 102 102 105 105 105 103 102 103 103 102 100 97 96 90 81 73
323 317 314 305 290 278 265 326 286 276 262 271 277 276 292 305 296 293 299 312 327 74 2 276 207 218 257 314 286 203 56 43 56 77 90 123 130 134 143 143 144 141 137 136 137 137 136 139 137 132 127 129 131 128 128 127 124 123 123 121 120 118 119 120 123 124 120 118 116 113 111 110 109 109 107 105 104 100 99 101 101 102 102 103 102 102 100 100 103 104 101 98 96 93 88 79 69
311 311 297 262 245 265 260 230 268 277 267 267 269 240 275 289 291 310 355 339 89 123 167 153 189 190 234 242 228 239 94 70 87 98 112 138 135 136 143 142 142 139 134 134 137 137 136 140 139 132 129 131 131 130 131 130 128 124 124 123 123 122 122 122 122 121 119 117 116 112 110 110 109 109 107 104 101 100 99 97 100 102 102 104 104 102 100 100 100 100 98 96 95 92 88 80 70
290 283 271 257 240 236 243 240 259 272 266 271 277 227 252 282 299 337 64 124 119 156 180 178 187 130 271 240 149 56 101 90 97 107 130 145 139 139 141 140 139 136 133 134 138 137 136 141 138 134 131 130 131 133 133 132 130 126 126 125 124 124 122 123 122 121 120 119 116 112 111 110 109 109 105 103 100 100 98 95 98 101 104 109 107 105 103 101 98 97 98 99 95 89 83 76 69
251 246 238 254 257 254 254 257 261 260 261 268 277 262 269 287 305 2 126 131 130 199 189 198 196 132 260 13 14 240 106 98 108 121 130 128 131 137 139 140 138 135 134 135 139 136 137 141 137 136 131 127 130 132 133 133 132 129 130 129 126 125 123 123 122 122 121 119 115 111 111 109 109 107 103 100 98 99 98 96 96 98 103 110 110 108 105 101 100 101 104 102 92 84 76 68 65
222 211 206 237 268 311 258 254 255 252 255 257 266 274 283 295 309 104 147 142 175 223 194 214 222 166 177 64 25 36 71 103 121 128 128 127 133 135 137 141 139 135 135 136 137 135 138 142 138 136 130 124 126 131 135 137 138 136 135 132 127 125 125 124 122 122 120 118 115 113 110 108 106 104 101 98 97 98 99 98 96 96 99 105 110 111 109 102 99 100 103 103 92 82 71 62 68
219 209 186 213 221 224 246 253 257 260 256 244 255 274 284 282 241 201 187 185 194 188 206 223 209 186 146 130 97 59 50 116 123 126 128 132 134 134 138 140 137 135 137 137 134 136 141 142 138 134 129 124 127 132 136 141 142 139 136 132 128 126 126 125 122 121 120 117 115 113 110 108 107 103 99 97 98 97 97 99 98 99 101 104 109 112 112 103 93 92 101 106 96 80 65 62 78
213 232 196 232 233 205 242 254 255 262 256 222 249 271 280 200 181 220 215 217 208 181 201 199 206 213 134 148 146 93 106 113 119 123 128 135 135 135 139 138 136 137 138 136 133 138 143 140 137 134 129 126 128 134 137 141 140 135 134 132 129 128 129 126 124 122 121 120 117 114 112 109 106 102 99 97 97 96 96 97 100 101 100 101 105 110 110 102 93 93 105 109 95 76 63 68 87
203 226 208 242 248 231 244 255 252 254 244 229 241 245 238 217 224 240 234 229 218 214 214 186 213 219 142 139 112 112 122 115 122 125 131 136 136 136 137 139 139 140 138 135 133 135 141 140 138 134 130 127 128 132 136 140 138 134 134 134 132 130 130 128 127 125 123 120 117 114 111 108 105 103 99 98 98 97 97 99 102 98 92 95 101 110 111 106 102 104 114 110 95 77 65 75 93
202 220 230 236 247 248 246 253 251 243 239 241 240 236 233 225 239 245 243 238 225 228 216 179 222 213 143 134 113 113 120 126 130 128 133 133 135 137 137 141 140 142 138 133 134 136 140 141 138 134 130 129 128 130 135 138 138 136 136 137 132 130 130 129 128 125 122 119 115 111 108 105 101 98 96 94 95 93 94 97 98 94 88 89 96 112 119 117 113 117 125 115 98 81 71 81 95
209 203 239 240 238 247 251 257 252 241 230 230 233 236 238 229 240 241 238 240 233 231 209 186 220 194 145 134 117 107 121 136 135 129 132 132 135 138 138 140 142 144 139 137 138 137 139 139 135 133 131 130 130 129 134 140 141 138 138 138 133 131 131 129 127 124 122 119 115 109 106 104 99 98 95 90 88 88 91 94 93 90 85 82 86 99 123 130 125 130 136 125 105 85 76 82 95
227 191 205 235 239 246 255 264 261 263 243 232 237 213 205 217 236 237 232 231 225 228 212 197 201 175 157 137 122 122 138 143 132 129 132 132 135 137 138 139 142 144 142 142 140 138 138 137 134 132 132 132 132 133 137 143 144 140 137 138 135 133 131 130 129 126 124 121 116 112 110 107 103 100 93 89 87 86 89 94 95 90 80 74 72 78 111 136 138 143 145 134 112 91 80 81 93
232 205 208 231 245 253 256 265 263 275 263 239 217 141 140 234 243 239 236 229 217 220 210 200 190 176 165 123 127 137 142 139 129 132 133 132 133 134 138 139 143 144 144 145 140 139 139 138 137 135 134 131 132 136 140 142 143 141 136 138 138 133 132 131 131 130 126 121 116 113 112 108 103 96 87 86 86 87 88 90 92 88 80 71 65 69 90 129 145 153 152 141 122 99 85 83 92
225 215 229 235 241 251 250 258 252 258 253 169 128 125 175 264 262 248 241 233 217 214 205 189 192 191 165 124 143 155 140 136 133 135 135 133 133 132 136 138 142 145 146 146 142 141 141 141 139 137 135 130 131 132 134 136 140 142 138 139 140 137 135 133 133 131 124 119 115 114 112 105 100 93 86 84 84 90 88 86 89 84 81 75 66 62 76 122 147 159 157 146 133 109 88 89 99
223 214 233 242 236 240 234 243 250 256 234 132 123 107 283 271 255 249 234 232 215 200 191 169 193 201 179 179 169 155 141 138 138 135 135 132 131 132 133 137 142 145 145 145 144 143 143 143 139 138 137 137 135 129 131 131 134 140 141 141 141 141 137 135 134 128 123 120 120 118 109 101 98 90 87 87 78 85 88 86 89 86 83 78 68 58 65 106 144 159 159 151 141 117 93 94 111
222 218 221 239 235 233 217 218 231 245 188 123 125 47 305 279 207 248 236 238 207 163 180 170 186 213 194 195 146 141 140 139 140 135 133 130 128 129 130 137 141 142 143 144 144 142 143 141 138 139 140 139 135 130 131 128 129 135 140 140 138 141 139 137 131 125 125 127 125 116 101 91 88 81 84 85 69 78 95 97 95 92 86 79 71 63 59 80 136 155 159 156 145 121 101 99 113
207 218 220 229 230 230 206 202 210 229 137 125 123 13 310 311 187 245 232 237 209 165 188 169 162 23 177 140 124 137 140 138 140 136 134 131 130 129 131 138 141 143 143 142 140 138 140 138 134 135 136 134 130 130 130 128 127 129 136 138 135 135 136 137 132 127 132 135 125 107 96 89 88 80 80 85 72 71 95 95 94 97 90 81 74 69 61 56 114 153 159 158 150 130 112 106 118
194 209 220 225 226 226 204 202 197 193 141 132 84 8 318 316 240 206 181 206 197 170 174 151 128 84 95 112 123 136 137 139 141 140 137 135 136 135 137 142 145 146 144 141 137 137 138 135 133 130 129 128 130 131 129 129 126 125 132 137 133 131 135 140 138 137 137 137 127 103 98 99 100 104 98 104 112 120 111 103 97 101 100 87 76 72 64 45 63 151 162 160 154 137 120 125 133
203 212 218 230 232 209 175 208 206 222 211 45 350 355 319 310 274 191 189 187 180 172 166 159 137 111 115 122 131 138 138 141 143 142 140 140 141 138 141 143 146 148 146 142 136 137 136 133 129 126 128 133 135 132 130 131 129 130 134 139 137 136 144 146 140 139 132 128 129 114 109 106 105 113 116 114 124 128 114 111 101 89 89 76 76 65 47 38 42 125 165 162 152 140 138 159 155
214 223 223 232 227 161 176 216 227 236 290 318 325 328 309 301 216 192 196 179 178 184 171 172 160 140 142 137 139 142 141 142 144 145 142 143 141 141 145 145 147 147 143 139 134 134 132 128 124 127 135 137 135 131 131 132 131 135 138 140 136 136 147 147 139 142 133 131 137 133 129 125 124 122 112 98 107 117 106 93 72 53 42 29 64 63 23 27 40 67 158 160 157 172 193 184 171
209 216 232 239 197 202 202 204 222 246 306 307 312 312 304 157 175 203 191 177 185 192 174 179 168 148 148 145 146 147 143 144 146 146 145 145 143 145 148 145 145 142 140 138 133 132 129 129 129 135 138 135 134 131 131 132 133 137 137 133 128 132 140 141 142 146 143 144 146 147 145 132 123 106 88 78 87 106 112 95 82 77 73 15 63 95 44 32 51 80 153 167 181 205 203 190 185
214 217 237 251 191 216 194 181 217 259 291 287 289 303 327 130 210 206 194 183 184 186 161 165 155 145 149 149 148 147 145 147 149 150 151 149 145 145 145 143 139 138 141 140 137 136 133 134 137 139 136 133 134 130 129 132 132 133 131 128 128 131 131 135 141 145 147 148 147 143 131 104 93 77 66 55 51 55 63 74 85 102 114 122 99 122 135 75 96 130 158 183 194 203 204 203 200
224 220 226 227 220 221 177 173 205 253 264 277 290 308 319 264 227 189 197 171 56 17 143 142 142 143 148 149 149 149 147 148 150 153 153 149 146 146 144 141 140 140 142 141 141 140 136 138 137 137 136 134 131 129 129 130 131 131 131 131 131 133 134 136 137 142 147 144 146 131 102 83 75 69 56 38 35 41 45 48 55 73 83 98 110 127 148 170 164 128 164 192 198 204 210 211 211
226 227 210 218 227 227 231 235 233 248 265 284 298 296 279 260 230 175 183 120 60 46 134 132 136 141 146 149 152 149 147 148 148 150 152 149 146 146 144 141 142 141 140 142 144 141 139 138 135 136 135 134 131 130 128 131 135 135 136 135 133 138 139 136 135 139 140 136 135 106 83 66 54 43 39 23 15 25 31 37 45 51 61 70 88 104 170 200 200 195 198 205 209 214 217 220 225
224 231 208 209 218 221 232 243 244 252 267 276 274 271 267 255 207 160 153 108 88 125 133 133 135 142 148 150 148 146 148 147 143 143 145 145 142 141 141 140 142 142 141 144 144 141 141 138 136 137 135 135 132 129 130 134 138 135 138 137 136 140 137 135 139 139 137 134 119 87 61 44 38 15 15 10 7 17 14 25 44 34 94 51 51 73 161 223 225 232 234 232 225 225 228 228 233
216 224 222 211 212 210 219 229 239 248 256 258 254 252 258 203 172 133 114 112 116 127 136 140 141 147 150 149 147 146 148 142 137 136 134 136 140 141 141 142 144 144 144 144 143 141 141 140 138 137 136 136 132 130 133 134 134 134 136 135 135 138 139 141 142 139 134 128 105 80 51 33 25 9 4 358 5 17 12 23 22 104 113 325 320 9 324 265 259 253 254 258 252 245 243 239 241
201 220 225 226 227 217 217 230 237 244 240 238 243 228 125 161 182 138 113 124 132 137 141 146 147 150 149 146 144 140 137 131 126 126 129 135 142 145 146 149 148 145 146 145 143 143 142 142 139 139 139 137 134 133 133 133 133 135 135 133 136 138 138 136 132 128 122 110 93 79 61 32 24 17 354 342 352 6 12 19 16 20 30 348 331 336 314 293 282 271 269 271 272 269 264 258 255
170 214 222 226 234 230 226 234 230 231 228 223 228 187 136 169 188 120 128 141 143 141 142 148 148 147 145 139 133 129 126 120 119 126 134 141 147 148 150 151 148 145 148 148 145 145 143 141 141 142 141 139 139 136 135 136 135 137 136 133 134 132 128 124 118 114 108 98 91 83 67 45 37 29 1 348 348 359 12 15 19 13 8 349 337 336 317 307 296 284 278 274 272 271 269 265 264
205 207 227 215 218 228 223 222 219 217 213 199 203 183 149 152 130 117 128 135 132 129 133 140 136 133 129 122 114 109 102 91 84 87 94 115 141 146 149 149 148 148 148 148 146 145 144 142 143 143 138 138 140 140 139 141 141 140 136 133 129 126 121 113 104 96 96 94 88 79 67 57 48 36 20 18 12 20 27 21 19 8 6 353 329 328 321 319 310 297 289 280 275 274 273 270 268
213 210 241 208 200 218 209 205 204 206 198 185 202 194 145 126 113 117 128 131 129 126 131 133 124 119 115 114 111 104 101 95 88 86 79 58 150 144 146 148 149 149 145 148 148 147 148 145 145 140 135 136 138 138 138 140 142 139 135 131 125 122 114 99 93 92 89 83 77 69 64 60 50 38 29 39 60 71 69 55 42 8 354 353 336 333 330 328 320 312 303 294 289 285 283 281 278
207 202 228 223 212 196 181 188 193 191 177 191 217 215 150 124 93 92 149 143 140 134 133 130 121 119 125 128 119 109 114 117 118 120 121 148 197 153 150 153 150 147 146 149 151 152 152 147 145 141 139 139 136 135 136 138 138 135 132 128 124 120 110 96 93 92 81 73 71 63 58 58 48 37 35 48 72 85 85 77 68 10 344 351 338 335 335 330 325 321 316 310 306 299 291 289 287
203 202 206 212 220 162 150 172 193 194 167 191 223 206 142 116 102 200 191 148 136 128 124 117 107 101 106 108 99 101 111 119 122 129 138 161 188 162 157 156 145 143 148 150 153 154 150 145 144 142 141 140 137 137 135 134 132 130 126 122 121 113 106 102 96 88 77 70 69 61 52 56 47 38 41 46 66 82 77 59 40 358 354 353 333 334 338 330 327 322 319 318 312 307 300 295 293
199 208 203 193 202 168 143 155 184 198 164 183 222 200 132 112 130 179 168 136 127 126 127 120 112 106 103 103 99 103 109 125 127 137 149 165 179 163 160 155 144 147 149 150 154 153 146 144 144 140 141 141 139 138 136 135 132 128 121 115 112 108 104 100 93 84 77 68 64 59 50 54 49 42 45 46 58 68 67 61 41 16 1 348 337 337 338 330 331 325 322 321 311 306 303 300 298
187 204 210 187 195 186 152 146 161 191 181 181 203 154 118 122 145 162 145 124 118 127 135 130 124 124 125 127 119 114 132 158 147 143 147 163 177 167 161 154 153 156 149 148 154 153 149 145 144 142 143 143 140 139 137 136 130 122 115 111 106 104 102 95 88 80 73 65 61 58 48 50 48 45 45 43 50 53 53 47 31 14 356 348 345 343 343 336 333 326 321 317 309 304 301 298 297
183 190 201 182 191 198 167 144 152 185 191 173 146 120 121 133 149 150 128 111 113 133 141 135 135 133 128 126 116 113 146 174 158 139 137 155 172 170 165 159 164 164 151 151 156 154 150 144 143 143 143 141 138 138 136 134 129 121 116 111 103 96 92 86 81 76 70 67 63 59 54 51 46 44 42 37 41 40 34 28 20 13 2 358 353 349 348 340 337 331 323 317 309 302 297 294 295
188 183 194 182 181 186 143 124 141 182 185 167 147 137 138 147 152 140 129 138 152 154 148 137 138 140 133 125 110 103 130 157 144 140 143 156 160 158 161 157 162 164 155 153 153 151 149 145 143 139 138 137 135 138 139 138 133 122 114 103 94 89 90 86 81 81 80 74 67 60 59 59 54 50 43 42 45 42 36 29 22 19 13 8 4 357 351 343 339 334 327 322 314 307 301 299 302
188 181 193 190 177 156 116 123 137 181 177 153 145 141 137 142 140 133 143 166 167 158 151 140 137 142 136 127 120 118 117 71 62 102 125 146 151 148 145 138 140 147 147 146 147 151 151 144 137 131 131 130 129 131 126 124 123 116 110 102 93 89 92 92 88 88 85 81 76 68 64 62 58 54 48 45 44 42 40 34 27 24 21 15 6 356 349 343 338 333 328 321 315 313 313 313 312
188 183 186 188 175 137 118 135 141 172 170 137 138 140 130 130 130 137 153 164 167 161 153 144 139 138 129 125 124 117 102 63 40 38 39 46 103 119 119 122 122 128 135 135 137 142 139 130 123 117 117 114 110 112 108 105 106 111 112 107 101 95 97 97 94 92 88 86 82 74 68 63 57 53 48 40 35 35 32 35 34 23 19 11 356 352 350 342 337 335 333 325 319 317 315 317 318
190 189 191 188 157 125 116 136 151 173 172 149 145 131 112 114 130 151 154 154 163 161 151 146 144 139 127 120 118 113 105 99 80 55 42 23 22 70 88 102 112 118 123 121 119 120 116 112 109 106 106 105 101 101 102 100 100 106 108 106 108 107 104 103 100 96 91 88 80 70 64 58 54 48 40 29 25 20 10 19 29 12 14 9 354 355 352 343 340 340 339 334 325 317 314 319 321
198 196 197 179 152 149 146 144 155 166 158 148 140 123 116 119 126 138 133 128 139 144 147 150 150 148 140 135 134 134 129 113 102 91 78 41 15 49 73 76 94 110 114 113 113 111 107 106 105 103 101 100 99 97 98 98 96 99 101 104 111 111 106 102 98 94 91 87 77 68 62 55 54 51 42 30 24 17 7 11 13 2 10 9 353 351 347 340 343 346 347 341 330 324 321 322 319
194 203 206 173 158 170 154 141 147 146 143 147 138 129 146 142 135 133 125 134 142 144 153 157 152 148 144 141 137 130 124 110 105 108 102 91 60 57 86 96 96 98 103 108 111 108 110 109 104 103 101 98 101 102 104 106 107 111 114 114 113 109 106 103 99 96 92 86 77 71 63 55 56 55 49 39 33 34 30 27 24 15 14 6 354 353 349 343 345 347 346 344 339 336 329 319 315
183 203 227 162 151 147 135 141 149 148 158 166 165 169 163 158 165 161 149 154 159 162 165 163 156 152 148 144 131 119 121 121 119 120 116 117 113 90 90 105 98 88 91 100 104 106 111 111 105 103 101 97 97 101 106 111 119 128 132 131 130 125 116 107 102 96 89 83 82 78 64 56 59 61 55 45 37 40 40 37 32 24 18 12 6 5 358 351 352 348 343 342 338 336 332 324 321
181 178 173 129 143 145 145 156 166 175 178 178 194 209 163 161 180 174 168 163 162 173 175 167 165 169 162 147 140 139 139 135 129 130 129 123 116 102 92 98 97 93 96 100 101 104 105 106 109 109 104 99 94 92 95 98 106 116 118 116 122 124 117 109 103 97 93 92 91 82 65 56 56 56 50 40 33 31 31 28 21 14 12 10 8 7 358 351 352 346 337 337 333 329 330 328 327
163 153 155 147 152 154 160 173 188 197 170 170 203 218 181 176 179 170 169 162 161 176 180 172 174 180 166 147 149 156 153 143 138 136 132 126 122 117 109 102 100 99 103 101 97 105 108 105 107 109 107 103 99 96 93 93 97 101 103 102 105 111 113 113 109 104 104 102 90 78 65 53 46 44 41 37 33 30 27 21 15 11 7 3 2 0 354 347 342 338 334 335 335 331 329 324 323
128 141 163 167 166 165 173 188 194 187 172 179 198 202 199 186 164 165 171 170 174 182 182 181 182 182 167 153 155 158 153 144 140 138 132 128 126 125 119 110 106 102 105 107 102 103 107 109 110 110 109 103 100 99 96 97 102 100 102 108 111 113 114 115 114 112 108 99 82 69 62 52 44 42 41 39 36 31 28 23 18 16 10 5 2 355 349 345 339 337 337 336 336 331 328 325 321
124 143 165 166 172 172 183 202 186 177 197 202 188 190 208 187 158 171 181 183 189 188 186 185 184 183 172 163 162 156 150 143 137 134 132 130 127 123 119 113 109 104 106 113 113 104 100 107 112 110 109 107 102 96 92 92 97 94 92 98 107 112 114 114 112 110 102 89 78 69 64 57 50 48 44 42 40 35 35 35 31 27 23 19 15 8 1 358 353 350 348 342 340 336 333 331 324
137 152 163 159 176 175 188 215 189 187 215 211 188 193 216 206 171 179 189 193 190 183 183 182 183 182 172 165 165 157 148 142 138 132 128 127 124 122 120 116 114 110 107 108 110 105 98 100 103 101 101 103 99 93 89 86 85 86 87 90 95 97 98 103 101 95 89 85 82 75 72 68 62 58 51 46 43 41 42 43 41 37 34 31 26 18 12 7 3 1 1 357 356 356 351 345 337
162 176 176 165 175 176 191 202 198 212 221 206 187 192 217 227 194 183 193 199 188 180 181 181 182 181 172 165 163 155 146 141 138 133 130 127 125 126 125 123 121 115 112 112 109 106 101 98 98 96 94 93 93 91 87 83 81 82 84 85 87 87 87 90 90 88 87 85 86 85 82 77 69 62 57 51 45 44 44 43 42 38 34 31 25 20 14 12 11 7 8 7 6 8 5 0 356
187 190 183 180 177 178 197 194 198 216 212 187 181 183 211 232 183 178 190 196 188 181 180 180 180 179 172 165 158 149 145 145 142 138 138 133 129 130 129 127 124 116 114 118 116 111 105 102 101 98 95 91 90 89 86 82 80 77 77 78 78 79 79 78 79 80 79 78 82 85 83 78 72 65 61 55 47 46 45 43 41 38 34 29 25 23 18 18 21 15 13 12 9 10 9 6 3
194 194 187 192 185 180 198 192 194 206 165 144 179 180 207 210 143 166 188 190 186 179 176 178 178 174 166 159 151 144 145 148 145 142 141 136 133 132 130 129 128 123 121 122 119 115 110 107 106 102 98 93 88 88 85 82 78 74 74 75 75 76 76 74 74 74 72 75 78 80 79 77 76 72 66 58 51 48 48 45 42 39 36 32 29 29 25 23 26 21 16 15 11 10 8 6 4
195 199 196 204 198 186 198 196 198 201 167 149 171 181 210 200 136 88 193 183 180 177 172 170 169 165 157 150 145 142 146 150 148 145 142 140 141 138 134 134 136 134 131 127 122 119 116 113 111 105 100 96 90 86 83 81 79 77 76 77 76 77 78 77 76 75 75 76 78 79 79 79 78 74 67 60 54 51 48 45 43 40 36 34 33 31 28 25 25 23 19 16 12 8 6 5 4
193 200 204 209 212 194 180 200 188 177 166 161 175 188 209 159 127 62 223 183 172 170 167 165 164 163 159 153 151 151 151 154 155 150 143 144 145 141 137 138 139 136 133 131 127 125 122 118 113 107 101 97 91 86 85 84 83 83 81 81 80 80 82 82 82 80 80 79 79 81 80 79 78 74 68 62 56 53 50 45 42 40 36 34 33 31 28 25 23 23 21 16 12 7 5 5 3
180 200 207 200 215 201 155 104 75 119 176 178 183 193 152 150 158 152 190 185 169 167 170 168 168 168 168 165 161 159 157 157 159 152 146 148 147 142 139 139 140 139 136 135 132 127 123 119 114 109 104 99 93 90 89 89 89 89 87 86 85 86 86 86 86 84 83 83 82 83 82 78 75 72 68 63 58 53 50 46 42 39 37 34 33 32 29 26 24 23 21 17 13 8 6 6 3
181 195 188 152 179 217 185 176 139 169 207 183 184 201 186 186 179 150 177 182 171 172 174 173 175 174 174 172 165 161 158 157 158 153 150 151 149 143 141 143 143 141 137 134 131 126 122 118 113 110 106 102 98 96 95 94 95 93 90 89 88 89 89 88 88 87 87 87 84 82 81 77 73 71 69 64 59 54 48 45 43 39 37 34 33 32 29 27 26 23 21 18 14 10 8 7 4
225 207 180 167 189 196 198 202 179 194 210 186 192 204 199 202 184 157 176 182 177 178 176 178 181 179 176 170 164 162 158 157 156 155 154 152 150 146 143 144 142 137 133 132 130 126 121 116 111 108 105 102 99 99 99 97 97 96 94 93 90 90 90 90 90 90 89 87 83 81 79 76 73 69 67 63 58 54 48 45 42 39 37 34 32 30 27 26 25 22 20 17 12 10 9 7 4
237 226 190 193 213 204 202 203 190 199 203 189 189 195 205 213 181 165 179 183 181 181 182 186 184 181 178 168 163 163 160 159 157 156 156 152 149 148 146 146 142 138 136 134 131 126 120 113 108 107 105 101 99 100 99 97 96 98 98 96 94 92 91 91 91 90 89 85 81 79 76 73 71 67 64 62 58 53 48 44 41 38 35 32 29 27 24 23 23 20 18 14 10 9 8 6 4
205 213 191 193 206 212 206 200 202 214 209 191 182 193 213 203 169 174 185 186 185 185 187 189 185 181 177 168 164 164 160 161 158 156 156 152 150 149 146 145 143 141 140 137 132 124 115 110 108 109 107 103 101 102 101 101 99 99 99 98 97 94 92 92 91 88 86 83 78 77 74 72 71 67 63 61 56 52 47 43 40 37 34 31 27 25 23 21 19 17 14 11 8 7 6 5 3
194 202 198 195 193 194 199 196 199 218 225 206 195 206 200 166 167 187 191 189 188 188 188 186 182 180 175 168 166 163 160 162 158 155 155 153 152 150 147 146 145 143 142 137 129 120 114 113 113 112 108 106 107 108 107 107 105 104 101 100 98 95 94 92 90 86 83 81 78 75 74 73 70 66 63 59 55 51 46 43 40 37 34 31 27 25 22 19 16 13 12 9 6 4 4 2 1